Time,TemperatureF,DewpointF,PressureIn,WindDirection,WindDirectionDegrees,WindSpeedMPH,WindSpeedGustMPH,Humidity,HourlyPrecipIn,Conditions,Clouds,dailyrainin,SoftwareType,DateUTC
2013-03-07 00:02:00,50.0,-99.9,30.29,NNE,19,15.0,20.0,-999,-99.99,,,-99.99,,2013-03-07 06:02:00,
2013-03-07 00:11:00,49.0,-99.9,30.28,NNE,21,18.0,21.0,-999,-99.99,,,-99.99,,2013-03-07 06:11:00,
2013-03-07 00:22:00,49.0,-99.9,30.28,NNE,29,19.0,20.0,-999,-99.99,,,-99.99,,2013-03-07 06:22:00,
2013-03-07 00:32:00,49.0,-99.9,30.28,NNE,25,17.0,21.0,-999,-99.99,,,-99.99,,2013-03-07 06:32:00,
2013-03-07 00:42:00,49.0,-99.9,30.28,NNE,32,19.0,21.0,-999,-99.99,,,-99.99,,2013-03-07 06:42:00,
2013-03-07 00:52:00,49.0,-99.9,30.28,NNE,27,19.0,21.0,-999,-99.99,,,-99.99,,2013-03-07 06:52:00,
2013-03-07 01:02:00,48.0,-99.9,30.28,NE,37,20.0,23.0,-999,-99.99,,,-99.99,,2013-03-07 07:02:00,
2013-03-07 01:11:00,48.0,-99.9,30.28,NNE,32,20.0,23.0,-999,-99.99,,,-99.99,,2013-03-07 07:11:00,
2013-03-07 01:22:00,48.0,-99.9,30.28,NNE,31,23.0,25.0,-999,-99.99,,,-99.99,,2013-03-07 07:22:00,
2013-03-07 01:32:00,47.0,-99.9,30.29,NNE,29,21.0,23.0,-999,-99.99,,,-99.99,,2013-03-07 07:32:00,
2013-03-07 01:43:00,47.0,-99.9,30.29,NNE,28,21.0,22.0,-999,-99.99,,,-99.99,,2013-03-07 07:43:00,
2013-03-07 01:53:00,47.0,-99.9,30.29,NNE,29,20.0,21.0,-999,-99.99,,,-99.99,,2013-03-07 07:53:00,
2013-03-07 02:03:00,47.0,-99.9,30.29,NNE,33,20.0,23.0,-999,-99.99,,,-99.99,,2013-03-07 08:03:00,
2013-03-07 02:12:00,47.0,-99.9,30.29,NE,34,19.0,23.0,-999,-99.99,,,-99.99,,2013-03-07 08:12:00,
2013-03-07 02:23:00,47.0,-99.9,30.29,NNE,31,19.0,21.0,-999,-99.99,,,-99.99,,2013-03-07 08:23:00,
2013-03-07 02:34:00,46.0,-99.9,30.28,NNE,29,19.0,21.0,-999,-99.99,,,-99.99,,2013-03-07 08:34:00,
2013-03-07 02:45:00,46.0,-99.9,30.28,NNE,32,18.0,21.0,-999,-99.99,,,-99.99,,2013-03-07 08:45:00,
2013-03-07 03:03:00,46.0,-99.9,30.27,NE,35,19.0,22.0,-999,-99.99,,,-99.99,,2013-03-07 09:03:00,
2013-03-07 03:14:00,46.0,-99.9,30.27,NE,37,20.0,22.0,-999,-99.99,,,-99.99,,2013-03-07 09:14:00,
2013-03-07 03:24:00,46.0,-99.9,30.27,NNE,28,20.0,21.0,-999,-99.99,,,-99.99,,2013-03-07 09:24:00,
2013-03-07 03:33:00,46.0,-99.9,30.27,NNE,30,18.0,21.0,-999,-99.99,,,-99.99,,2013-03-07 09:33:00,
2013-03-07 03:43:00,45.0,-99.9,30.27,NNE,32,19.0,22.0,-999,-99.99,,,-99.99,,2013-03-07 09:43:00,
2013-03-07 04:04:00,45.0,-99.9,30.26,NNE,30,20.0,23.0,-999,-99.99,,,-99.99,,2013-03-07 10:04:00,
2013-03-07 04:14:00,45.0,-99.9,30.26,NE,35,20.0,23.0,-999,-99.99,,,-99.99,,2013-03-07 10:14:00,
2013-03-07 04:24:00,45.0,-99.9,30.26,NNE,31,20.0,23.0,-999,-99.99,,,-99.99,,2013-03-07 10:24:00,
2013-03-07 04:33:00,45.0,-99.9,30.27,NE,40,20.0,22.0,-999,-99.99,,,-99.99,,2013-03-07 10:33:00,
2013-03-07 04:43:00,44.0,-99.9,30.27,NE,37,20.0,23.0,-999,-99.99,,,-99.99,,2013-03-07 10:43:00,
2013-03-07 04:53:00,44.0,-99.9,30.27,NE,39,21.0,25.0,-999,-99.99,,,-99.99,,2013-03-07 10:53:00,
2013-03-07 05:04:00,44.0,-99.9,30.26,NE,44,22.0,25.0,-999,-99.99,,,-99.99,,2013-03-07 11:04:00,
2013-03-07 05:12:00,44.0,-99.9,30.27,NE,48,22.0,24.0,-999,-99.99,,,-99.99,,2013-03-07 11:12:00,
2013-03-07 05:23:00,44.0,-99.9,30.27,NE,40,22.0,24.0,-999,-99.99,,,-99.99,,2013-03-07 11:23:00,
2013-03-07 05:34:00,44.0,-99.9,30.27,NE,42,23.0,26.0,-999,-99.99,,,-99.99,,2013-03-07 11:34:00,
2013-03-07 05:44:00,44.0,-99.9,30.27,NE,41,22.0,24.0,-999,-99.99,,,-99.99,,2013-03-07 11:44:00,
2013-03-07 05:55:00,44.0,-99.9,30.27,NE,41,21.0,23.0,-999,-99.99,,,-99.99,,2013-03-07 11:55:00,
2013-03-07 06:04:00,44.0,-99.9,30.28,NE,41,20.0,23.0,-999,-99.99,,,-99.99,,2013-03-07 12:04:00,
2013-03-07 06:13:00,44.0,-99.9,30.28,NE,34,21.0,23.0,-999,-99.99,,,-99.99,,2013-03-07 12:13:00,
2013-03-07 06:23:00,44.0,-99.9,30.29,NE,34,21.0,23.0,-999,-99.99,,,-99.99,,2013-03-07 12:23:00,
2013-03-07 06:34:00,44.0,-99.9,30.30,NE,37,20.0,22.0,-999,-99.99,,,-99.99,,2013-03-07 12:34:00,
2013-03-07 06:43:00,44.0,-99.9,30.30,NE,34,19.0,22.0,-999,-99.99,,,-99.99,,2013-03-07 12:43:00,
2013-03-07 06:53:00,44.0,-99.9,30.31,NNE,32,19.0,21.0,-999,-99.99,,,-99.99,,2013-03-07 12:53:00,
2013-03-07 07:03:00,44.0,-99.9,30.32,NNE,33,15.0,20.0,-999,-99.99,,,-99.99,,2013-03-07 13:03:00,
2013-03-07 07:13:00,44.0,-99.9,30.32,NNE,28,18.0,20.0,-999,-99.99,,,-99.99,,2013-03-07 13:13:00,
2013-03-07 07:23:00,44.0,-99.9,30.33,NE,34,16.0,18.0,-999,-99.99,,,-99.99,,2013-03-07 13:23:00,
2013-03-07 07:33:00,44.0,-99.9,30.34,NE,37,16.0,19.0,-999,-99.99,,,-99.99,,2013-03-07 13:33:00,
2013-03-07 07:43:00,44.0,-99.9,30.34,NNE,33,16.0,19.0,-999,-99.99,,,-99.99,,2013-03-07 13:43:00,
2013-03-07 07:53:00,44.0,-99.9,30.35,NNE,21,15.0,19.0,-999,-99.99,,,-99.99,,2013-03-07 13:53:00,
2013-03-07 08:02:00,44.0,-99.9,30.35,NE,39,16.0,19.0,-999,-99.99,,,-99.99,,2013-03-07 14:02:00,
2013-03-07 08:12:00,44.0,-99.9,30.35,NE,40,16.0,19.0,-999,-99.99,,,-99.99,,2013-03-07 14:12:00,
2013-03-07 08:23:00,44.0,-99.9,30.36,NNE,29,15.0,19.0,-999,-99.99,,,-99.99,,2013-03-07 14:23:00,
2013-03-07 08:34:00,44.0,-99.9,30.36,NE,34,17.0,18.0,-999,-99.99,,,-99.99,,2013-03-07 14:34:00,
2013-03-07 08:43:00,44.0,-99.9,30.36,NE,34,15.0,19.0,-999,-99.99,,,-99.99,,2013-03-07 14:43:00,
2013-03-07 08:54:00,44.0,-99.9,30.37,NNE,29,15.0,19.0,-999,-99.99,,,-99.99,,2013-03-07 14:54:00,
2013-03-07 09:03:00,44.0,-99.9,30.36,NE,43,17.0,19.0,-999,-99.99,,,-99.99,,2013-03-07 15:03:00,
2013-03-07 09:13:00,44.0,-99.9,30.36,NE,46,17.0,19.0,-999,-99.99,,,-99.99,,2013-03-07 15:13:00,
2013-03-07 09:23:00,44.0,-99.9,30.37,NE,38,14.0,18.0,-999,-99.99,,,-99.99,,2013-03-07 15:23:00,
2013-03-07 09:33:00,44.0,-99.9,30.36,NE,37,15.0,19.0,-999,-99.99,,,-99.99,,2013-03-07 15:33:00,
2013-03-07 09:43:00,44.0,-99.9,30.37,NNE,33,15.0,16.0,-999,-99.99,,,-99.99,,2013-03-07 15:43:00,
2013-03-07 09:53:00,45.0,-99.9,30.36,NE,39,14.0,16.0,-999,-99.99,,,-99.99,,2013-03-07 15:53:00,
2013-03-07 10:03:00,45.0,-99.9,30.36,NE,41,13.0,16.0,-999,-99.99,,,-99.99,,2013-03-07 16:03:00,
2013-03-07 10:13:00,45.0,-99.9,30.36,NE,49,11.0,14.0,-999,-99.99,,,-99.99,,2013-03-07 16:13:00,
2013-03-07 10:24:00,45.0,-99.9,30.36,NE,40,12.0,14.0,-999,-99.99,,,-99.99,,2013-03-07 16:24:00,
2013-03-07 10:33:00,46.0,-99.9,30.36,NE,50,7.0,12.0,-999,-99.99,,,-99.99,,2013-03-07 16:33:00,
2013-03-07 10:43:00,46.0,-99.9,30.36,NE,34,9.0,10.0,-999,-99.99,,,-99.99,,2013-03-07 16:43:00,
2013-03-07 10:53:00,46.0,-99.9,30.36,NE,36,7.0,12.0,-999,-99.99,,,-99.99,,2013-03-07 16:53:00,
2013-03-07 11:03:00,46.0,-99.9,30.37,NNE,29,8.0,11.0,-999,-99.99,,,-99.99,,2013-03-07 17:03:00,
2013-03-07 11:12:00,46.0,-99.9,30.37,NE,34,7.0,11.0,-999,-99.99,,,-99.99,,2013-03-07 17:12:00,
2013-03-07 11:23:00,47.0,-99.9,30.37,NE,35,8.0,10.0,-999,-99.99,,,-99.99,,2013-03-07 17:23:00,
2013-03-07 11:34:00,47.0,-99.9,30.37,North,-999,7.0,8.0,-999,-99.99,,,-99.99,,2013-03-07 17:34:00,
2013-03-07 11:44:00,47.0,-99.9,30.37,NNE,16,5.0,10.0,-999,-99.99,,,-99.99,,2013-03-07 17:44:00,
2013-03-07 11:55:00,47.0,-99.9,30.37,North,354,6.0,8.0,-999,-99.99,,,-99.99,,2013-03-07 17:55:00,
2013-03-07 12:04:00,47.0,-99.9,30.36,NNW,345,6.0,8.0,-999,-99.99,,,-99.99,,2013-03-07 18:04:00,
2013-03-07 12:13:00,47.0,-99.9,30.36,NNW,339,5.0,8.0,-999,-99.99,,,-99.99,,2013-03-07 18:13:00,
2013-03-07 12:22:00,47.0,-99.9,30.35,NNW,339,4.0,6.0,-999,-99.99,,,-99.99,,2013-03-07 18:22:00,
2013-03-07 12:33:00,47.0,-99.9,30.34,NW,324,3.0,4.0,-999,-99.99,,,-99.99,,2013-03-07 18:33:00,
2013-03-07 12:43:00,48.0,-99.9,30.34,NE,40,2.0,4.0,-999,-99.99,,,-99.99,,2013-03-07 18:43:00,
2013-03-07 12:53:00,49.0,-99.9,30.33,ENE,58,3.0,3.0,-999,-99.99,,,-99.99,,2013-03-07 18:53:00,
2013-03-07 13:03:00,49.0,-99.9,30.32,East,84,4.0,5.0,-999,-99.99,,,-99.99,,2013-03-07 19:03:00,
2013-03-07 13:24:00,49.0,-99.9,30.31,East,81,3.0,4.0,-999,-99.99,,,-99.99,,2013-03-07 19:24:00,
2013-03-07 13:35:00,49.0,-99.9,30.30,SE,144,2.0,3.0,-999,-99.99,,,-99.99,,2013-03-07 19:35:00,
2013-03-07 13:44:00,50.0,-99.9,30.30,ESE,109,2.0,2.0,-999,-99.99,,,-99.99,,2013-03-07 19:44:00,
2013-03-07 13:53:00,50.0,-99.9,30.30,SE,136,3.0,4.0,-999,-99.99,,,-99.99,,2013-03-07 19:53:00,
2013-03-07 14:02:00,50.0,-99.9,30.29,SSE,155,5.0,6.0,-999,-99.99,,,-99.99,,2013-03-07 20:02:00,
2013-03-07 14:14:00,51.0,-99.9,30.28,SE,144,5.0,6.0,-999,-99.99,,,-99.99,,2013-03-07 20:14:00,
2013-03-07 14:23:00,52.0,-99.9,30.28,South,189,4.0,7.0,-999,-99.99,,,-99.99,,2013-03-07 20:23:00,
2013-03-07 14:34:00,52.0,-99.9,30.28,SSE,155,4.0,7.0,-999,-99.99,,,-99.99,,2013-03-07 20:34:00,
2013-03-07 14:43:00,52.0,-99.9,30.28,South,184,5.0,7.0,-999,-99.99,,,-99.99,,2013-03-07 20:43:00,
2013-03-07 14:54:00,53.0,-99.9,30.27,South,182,5.0,7.0,-999,-99.99,,,-99.99,,2013-03-07 20:54:00,
2013-03-07 15:03:00,53.0,-99.9,30.27,SW,224,5.0,8.0,-999,-99.99,,,-99.99,,2013-03-07 21:03:00,
2013-03-07 15:13:00,53.0,-99.9,30.28,SSW,208,5.0,8.0,-999,-99.99,,,-99.99,,2013-03-07 21:13:00,
2013-03-07 15:23:00,53.0,-99.9,30.27,SSW,200,6.0,9.0,-999,-99.99,,,-99.99,,2013-03-07 21:23:00,
2013-03-07 15:33:00,52.0,-99.9,30.27,SSW,211,4.0,8.0,-999,-99.99,,,-99.99,,2013-03-07 21:33:00,
2013-03-07 15:43:00,52.0,-99.9,30.27,SW,232,6.0,8.0,-999,-99.99,,,-99.99,,2013-03-07 21:43:00,
2013-03-07 15:53:00,52.0,-99.9,30.26,SSW,213,5.0,7.0,-999,-99.99,,,-99.99,,2013-03-07 21:53:00,
2013-03-07 16:02:00,53.0,-99.9,30.26,SW,230,6.0,8.0,-999,-99.99,,,-99.99,,2013-03-07 22:02:00,
2013-03-07 16:12:00,53.0,-99.9,30.27,WSW,239,7.0,9.0,-999,-99.99,,,-99.99,,2013-03-07 22:12:00,
2013-03-07 16:23:00,52.0,-99.9,30.26,WSW,240,8.0,10.0,-999,-99.99,,,-99.99,,2013-03-07 22:23:00,
2013-03-07 16:33:00,52.0,-99.9,30.26,SW,235,7.0,9.0,-999,-99.99,,,-99.99,,2013-03-07 22:33:00,
2013-03-07 16:44:00,52.0,-99.9,30.25,SW,222,6.0,9.0,-999,-99.99,,,-99.99,,2013-03-07 22:44:00,
2013-03-07 16:55:00,53.0,-99.9,30.27,WSW,244,6.0,10.0,-999,-99.99,,,-99.99,,2013-03-07 22:55:00,
2013-03-07 17:03:00,52.0,-99.9,30.26,WSW,238,7.0,9.0,-999,-99.99,,,-99.99,,2013-03-07 23:03:00,
2013-03-07 17:13:00,53.0,-99.9,30.26,SW,233,6.0,11.0,-999,-99.99,,,-99.99,,2013-03-07 23:13:00,
2013-03-07 17:22:00,53.0,-99.9,30.26,WSW,244,6.0,9.0,-999,-99.99,,,-99.99,,2013-03-07 23:22:00,
2013-03-07 17:35:00,53.0,-99.9,30.26,SW,235,7.0,10.0,-999,-99.99,,,-99.99,,2013-03-07 23:35:00,
2013-03-07 17:44:00,53.0,-99.9,30.26,WSW,238,7.0,12.0,-999,-99.99,,,-99.99,,2013-03-07 23:44:00,
2013-03-07 17:54:00,53.0,-99.9,30.26,WSW,247,7.0,10.0,-999,-99.99,,,-99.99,,2013-03-07 23:54:00,
2013-03-07 18:05:00,53.0,-99.9,30.26,WSW,247,7.0,10.0,-999,-99.99,,,-99.99,,2013-03-08 00:05:00,
2013-03-07 18:13:00,53.0,-99.9,30.26,WSW,238,8.0,10.0,-999,-99.99,,,-99.99,,2013-03-08 00:13:00,
2013-03-07 18:23:00,53.0,-99.9,30.27,WSW,256,5.0,8.0,-999,-99.99,,,-99.99,,2013-03-08 00:23:00,
2013-03-07 18:35:00,53.0,-99.9,30.27,West,268,4.0,6.0,-999,-99.99,,,-99.99,,2013-03-08 00:35:00,
2013-03-07 18:44:00,53.0,-99.9,30.27,West,278,4.0,6.0,-999,-99.99,,,-99.99,,2013-03-08 00:44:00,
2013-03-07 18:54:00,53.0,-99.9,30.27,West,269,5.0,6.0,-999,-99.99,,,-99.99,,2013-03-08 00:54:00,
2013-03-07 19:02:00,53.0,-99.9,30.27,West,266,4.0,6.0,-999,-99.99,,,-99.99,,2013-03-08 01:02:00,
2013-03-07 19:12:00,52.0,-99.9,30.27,West,270,5.0,6.0,-999,-99.99,,,-99.99,,2013-03-08 01:12:00,
2013-03-07 19:22:00,53.0,-99.9,30.27,WNW,282,6.0,8.0,-999,-99.99,,,-99.99,,2013-03-08 01:22:00,
2013-03-07 19:33:00,53.0,-99.9,30.27,West,275,5.0,7.0,-999,-99.99,,,-99.99,,2013-03-08 01:33:00,
2013-03-07 19:42:00,53.0,-99.9,30.27,West,271,5.0,7.0,-999,-99.99,,,-99.99,,2013-03-08 01:42:00,
2013-03-07 19:52:00,53.0,-99.9,30.27,West,272,5.0,7.0,-999,-99.99,,,-99.99,,2013-03-08 01:52:00,
2013-03-07 20:02:00,53.0,-99.9,30.27,West,266,5.0,7.0,-999,-99.99,,,-99.99,,2013-03-08 02:02:00,
2013-03-07 20:12:00,53.0,-99.9,30.27,West,269,5.0,8.0,-999,-99.99,,,-99.99,,2013-03-08 02:12:00,
2013-03-07 20:22:00,53.0,-99.9,30.27,West,272,6.0,8.0,-999,-99.99,,,-99.99,,2013-03-08 02:22:00,
2013-03-07 20:32:00,53.0,-99.9,30.27,West,278,6.0,10.0,-999,-99.99,,,-99.99,,2013-03-08 02:32:00,
2013-03-07 20:42:00,53.0,-99.9,30.27,West,278,8.0,10.0,-999,-99.99,,,-99.99,,2013-03-08 02:42:00,
2013-03-07 21:02:00,53.0,-99.9,30.28,West,279,7.0,8.0,-999,-99.99,,,-99.99,,2013-03-08 03:02:00,
2013-03-07 21:12:00,53.0,-99.9,30.28,WNW,283,7.0,9.0,-999,-99.99,,,-99.99,,2013-03-08 03:12:00,
2013-03-07 21:22:00,53.0,-99.9,30.28,West,276,7.0,10.0,-999,-99.99,,,-99.99,,2013-03-08 03:22:00,
2013-03-07 21:33:00,53.0,-99.9,30.28,West,277,6.0,8.0,-999,-99.99,,,-99.99,,2013-03-08 03:33:00,
2013-03-07 21:43:00,53.0,-99.9,30.28,West,279,6.0,8.0,-999,-99.99,,,-99.99,,2013-03-08 03:43:00,
2013-03-07 21:53:00,53.0,-99.9,30.28,WNW,282,7.0,10.0,-999,-99.99,,,-99.99,,2013-03-08 03:53:00,
2013-03-07 22:02:00,53.0,-99.9,30.28,WNW,288,6.0,8.0,-999,-99.99,,,-99.99,,2013-03-08 04:02:00,
2013-03-07 22:12:00,53.0,-99.9,30.28,WNW,299,6.0,10.0,-999,-99.99,,,-99.99,,2013-03-08 04:12:00,
2013-03-07 22:22:00,53.0,-99.9,30.28,NW,308,9.0,10.0,-999,-99.99,,,-99.99,,2013-03-08 04:22:00,
2013-03-07 22:32:00,53.0,-99.9,30.28,NW,312,10.0,10.0,-999,-99.99,,,-99.99,,2013-03-08 04:32:00,
2013-03-07 22:42:00,53.0,-99.9,30.28,NW,313,11.0,11.0,-999,-99.99,,,-99.99,,2013-03-08 04:42:00,
2013-03-07 22:52:00,53.0,-99.9,30.28,NW,308,9.0,11.0,-999,-99.99,,,-99.99,,2013-03-08 04:52:00,
2013-03-07 23:02:00,53.0,-99.9,30.28,NW,313,10.0,10.0,-999,-99.99,,,-99.99,,2013-03-08 05:02:00,
2013-03-07 23:12:00,53.0,-99.9,30.28,WNW,298,7.0,8.0,-999,-99.99,,,-99.99,,2013-03-08 05:12:00,
2013-03-07 23:22:00,53.0,-99.9,30.27,WNW,301,7.0,8.0,-999,-99.99,,,-99.99,,2013-03-08 05:22:00,
2013-03-07 23:33:00,53.0,-99.9,30.27,WNW,299,8.0,10.0,-999,-99.99,,,-99.99,,2013-03-08 05:33:00,
2013-03-07 23:42:00,53.0,-99.9,30.27,WNW,298,8.0,10.0,-999,-99.99,,,-99.99,,2013-03-08 05:42:00,
2013-03-07 23:52:00,53.0,-99.9,30.27,WNW,290,6.0,9.0,-999,-99.99,,,-99.99,,2013-03-08 05:52:00,